Location: Alsip
(41.6689°N, 87.7387°W)
Time: 14:12:07
(UTC+00:00)

EO 1 Del DPAF - Pass Details

Date: 14 July 2020
Orbit: 512 x 518 km, 98.0° (Epoch: 04 August)

Event Time Altitude Azimuth Distance (km) Brightness Sun altitude
Rises 04:34:05 0° 16° (NNE) 2,636 7.6 -23.9°
Reaches altitude 10° 04:36:12 10° 19° (NNE) 1,744 6.5 -24.0°
Enters shadow 04:38:56 44° 40° (NE) 720 4.0 -24.2°
